Location: *
(50.6089°N, 2.2719°E)
Time: 19:30:01
(UTC+00:00)

STARLINK-21 - Pass Details

Date: 18 October 2019
Orbit: 550 x 552 km, 53.0° (Epoch: 18 November)

Event Time Altitude Azimuth Distance (km) Brightness Sun altitude
Rises 18:07:15 0° 258° (WSW) 2,717 9.0 -12.4°
Reaches altitude 10° 18:09:29 10° 260° (W) 1,825 7.7 -12.8°
Maximum altitude 18:13:38 74° 346° (NNW) 577 3.7 -13.4°
Enters shadow 18:16:19 21° 69° (ENE) 1,260 4.9 -13.9°
